Location: Unspecified
(44.5727°N, 0.0000°E)
Time: 02:34:03
(UTC+00:00)

Timation 1 Rocket - Visible Passes

Search period start: 04 April 2026 00:00
Search period end: 14 April 2026 00:00
Orbit: 895 x 909 km, 70.0° (Epoch: 28 March)

Date Brightness Start Highest point End Pass type
(mag) Time Alt. Az. Time Alt. Az. Time Alt. Az.
4 Apr 6.8 02:11:42 10° ESE 02:14:19 13° E 02:16:55 10° ENE visible
4 Apr 4.4 03:54:31 20° SSW 03:58:50 84° ESE 04:04:54 10° NNE visible
5 Apr 6.4 02:14:53 15° SE 02:17:09 18° E 02:21:00 10° ENE visible
5 Apr 4.3 03:57:59 23° SW 04:01:56 77° WNW 04:07:58 10° NNE visible
6 Apr 6.0 02:18:17 21° SE 02:20:02 24° ESE 02:24:39 10° NE visible
6 Apr 4.5 04:01:23 24° SW 04:05:03 60° WNW 04:11:01 10° NNE visible
7 Apr 5.6 02:21:36 28° SE 02:22:57 31° ESE 02:28:07 10° NE visible
7 Apr 4.7 04:04:42 23° WSW 04:08:13 47° NW 04:14:01 10° NNE visible
8 Apr 5.2 02:24:52 37° SE 02:25:53 40° ESE 02:31:27 10° NE visible
8 Apr 5.1 04:07:57 21° WSW 04:11:25 37° NW 04:16:59 10° NNE visible
9 Apr 4.8 02:28:04 49° SE 02:28:53 53° ESE 02:34:42 10° NE visible
9 Apr 5.4 04:11:09 18° W 04:14:40 30° NW 04:19:55 10° N visible
10 Apr 4.4 02:31:14 63° SSE 02:31:54 69° ESE 02:37:52 10° NNE visible
10 Apr 5.7 04:14:19 15° W 04:17:57 25° NW 04:22:48 10° N visible
11 Apr 6.6 00:51:16 13° E 00:51:16 13° E 00:53:17 10° ENE visible
11 Apr 4.2 02:34:21 74° SSW 02:34:56 88° ESE 02:41:00 10° NNE visible
11 Apr 5.9 04:17:25 12° W 04:21:17 20° NW 04:25:38 10° N visible
12 Apr 6.4 00:54:21 18° E 00:54:21 18° E 00:57:14 10° ENE visible
12 Apr 4.2 02:37:25 67° WSW 02:38:02 73° WNW 02:44:04 10° NNE visible
12 Apr 6.2 04:20:55 10° WNW 04:24:39 17° NW 04:28:23 10° N visible
13 Apr 6.1 00:57:23 23° E 00:57:23 23° E 01:00:50 10° NE visible
13 Apr 4.5 02:40:27 54° W 02:41:09 57° WNW 02:47:06 10° NNE visible
13 Apr 6.4 04:25:06 10° WNW 04:28:03 14° NW 04:31:01 10° N visible
